Bellewood, Mississippi
Current Conditions -  °F | °C
As of 12:53 AM on Sunday 26 Oct 2014 (Local Time) from KGLH Reporting Station
Clear Clear  
Wind Chill: 62°   Ceiling: Unl
Heat Index: 62°   Visibility: 7mi
Dew Point: 60°   Wind: 3mph
Humidity: 93%   Direction: 200°SSW
Pressure: 30.03"   Gusts: NA
Location:  33.234°N, 90.6166°W
Report Text: KGLH 260553Z AUTO 20003KT 7SM CLR 17/16 A3003 RMK AO2 SLP176 T01670156 10222 20161 402780111 58008
Loading
Personal Weather Stations






























Interactive Weather Map
Tropical Storm Tracking
New forecast layout! Learn more

10-Day Weather Forecast

Advertisements
Track Severe Weather on mobile